[[{"header":{"parameterUnit":"m.s-1","parameterCategory":2,"la1":30.2991,"la2":30.254,"lo1":-89.0895,"lo2":-89.0444,"dy":0.0017,"dx":0.0017,"nx":28,"ny":28,"refTime":"2024-02-12T03:00:00:Z","depth":"0","parameterNumber":2,"parameterNumberName":"U-component_of_CURRENTS"},"data":[0,0,0,0,0,0,0,0,0,0,0,0,0,0,0,0,0,0,0,0,0,0,0,0,0,0,0,0,0,0,0,0,0,0,0,0,0,0,0,0,0,0,0,0,0,0,0,0,0,0,0,0,0,0,0,0,0,0,0.1908,0.1908,0,0.1935,0.1935,0.1935,0.1938,0.1937,0.1937,0.1937,0.1941,0.1941,0.1942,0,0,0,0,0,0,0,0,0,0,0,0,0,0.186,0.186,0.1907,0.1908,0.1908,0.1935,0.1935,0.1935,0.1938,0.1937,0.1937,0.1937,0.1941,0.1941,0.1942,0,0,0,0,0,0,0,0,0,0,0,0,0,0.1882,0.1861,0.1907,0.1914,0.1915,0.1935,0.1935,0.1936,0.1938,0.1937,0.1937,0.1937,0.1941,0.1941,0.1942,0.1949,0,0,0.1943,0.1943,0,0,0,0,0,0,0,0,0.188,0.1883,0.1912,0.1914,0.1915,0.1934,0.192,0.1939,0.1938,0.1927,0.1937,0.1937,0.1938,0.1938,0.1942,0.1949,0.1949,0.1943,0.1943,0.1943,0.1943,0,0,0,0,0,0,0,0.1879,0.1882,0.1917,0.1913,0.1914,0.1917,0.1919,0.1924,0.1932,0.1928,0.1929,0.1935,0.1938,0.1942,0.1942,0.1949,0.1943,0.1943,0.1943,0.1943,0.1994,0.1995,0,0,0,0,0,0,0.1879,0.1881,0.1916,0.1918,0.1898,0.1918,0.1921,0.1927,0.1932,0.1934,0.1935,0.1935,0.1941,0.1942,0.1942,0.1975,0.1943,0.1944,0.1944,0.1993,0.1995,0.1996,0,0,0,0,0,0,0.1878,0.1882,0.1915,0.1901,0.1906,0.1919,0.1926,0.1927,0.1934,0.1938,0.1938,0.194,0.1941,0.1942,0.1959,0.1974,0.1944,0.1944,0.1992,0.1994,0.1995,0.2025,0,0,0,0,0,0,0.1876,0.1881,0.1884,0.1901,0.1906,0.1937,0.1926,0.1928,0.1939,0.1939,0.1943,0.1943,0.1941,0.1959,0.1959,0.1974,0.1944,0.199,0.1993,0.1995,0.2023,0.2028,0.2032,0,0,0,0,0,0.1874,0.1883,0.1884,0.1889,0.1911,0.1938,0.1941,0.1948,0.1939,0.1951,0.1954,0.1943,0.1973,0.196,0.196,0.1976,0.1989,0.1992,0.1995,0.2021,0.2027,0.2032,0,0,0,0,0,0,0.1864,0.1885,0.1886,0.19,0.1922,0.1939,0.1951,0.1951,0.1962,0.196,0.1956,0.1957,0.198,0.1975,0.1961,0.1998,0.198,0.1982,0.1999,0.2005,0.2009,0.2029,0.1945,0,0,0,0,0,0.1864,0.1875,0.1897,0.191,0.1922,0.1935,0.1945,0.1951,0.1964,0.1968,0.1971,0.1977,0.1991,0.1995,0.2007,0.2023,0.2028,0.2035,0.2039,0.2043,0.2061,0.208,0.2087,0.2004,0.2004,0.2004,0,0,0.1863,0.1876,0.1883,0.1909,0.1924,0.1947,0.1941,0.1962,0.1981,0.1967,0.1991,0.1994,0.2001,0.2025,0.2034,0.2021,0.207,0.2046,0.2049,0.2066,0.2083,0.2091,0.2098,0.2006,0.2006,0.2005,0,0,0.1871,0.1882,0.1896,0.1916,0.1943,0.1957,0.1965,0.1987,0.1998,0.2017,0.202,0.2039,0.2044,0.2065,0.2072,0.211,0.2096,0.2105,0.2139,0.2157,0.2163,0.217,0.2184,0.2191,0.2103,0.2103,0.2103,0,0.1869,0.189,0.1906,0.1927,0.1947,0.1963,0.1987,0.2006,0.203,0.2046,0.2029,0.2065,0.2069,0.2113,0.2128,0.2121,0.2124,0.2114,0.2162,0.2168,0.2174,0.2187,0.2195,0.2105,0.2104,0.2104,0.2104,0,0.1889,0.1908,0.1922,0.1955,0.1978,0.2005,0.2035,0.2057,0.2063,0.2079,0.2118,0.2126,0.2149,0.2152,0.215,0.22,0.2186,0.2167,0.2146,0.2184,0.2196,0.2203,0.2107,0.2106,0.2106,0.2105,0,0,0.188,0.1926,0.1931,0.1948,0.1996,0.2014,0.2058,0.2103,0.213,0.2148,0.2183,0.2214,0.2218,0.2229,0.2232,0.225,0.229,0.2227,0.2227,0.2238,0.2326,0.2339,0.2348,0.2271,0.2273,0.2274,0.2316,0,0.1893,0.1929,0.1954,0.1994,0.2018,0.2053,0.2093,0.2134,0.2162,0.22,0.2225,0.2256,0.2248,0.2256,0.2279,0.2292,0.2312,0.2281,0.2291,0.2292,0.2296,0.2358,0.2383,0.2425,0.2323,0.2324,0.2325,0,0.1904,0.1928,0.1965,0.2014,0.2029,0.2054,0.2117,0.2154,0.222,0.2245,0.2287,0.23,0.2355,0.2323,0.2378,0.2354,0.2352,0.2352,0.2353,0.2365,0.232,0.2371,0.2442,0.2462,0.2336,0.2335,0.2335,0,0.1883,0.1934,0.1961,0.1978,0.2038,0.206,0.2094,0.2162,0.2207,0.2274,0.2306,0.2361,0.2391,0.2404,0.2422,0.2395,0.2467,0.2423,0.2435,0.2435,0.2462,0.2462,0.2554,0.2459,0.2459,0.2458,0.2458,0,0.1886,0.1906,0.1949,0.1962,0.1998,0.2043,0.2095,0.214,0.2219,0.2275,0.2324,0.2379,0.2411,0.2452,0.2448,0.2485,0.249,0.2469,0.2459,0.2472,0.2473,0.2494,0.2472,0.246,0.246,0.2459,0.2459,0,0.186,0.189,0.1918,0.197,0.1987,0.2009,0.2091,0.2127,0.221,0.2283,0.2306,0.2408,0.2473,0.2502,0.2538,0.2528,0.251,0.2549,0.2567,0.2559,0.2575,0.2552,0.2432,0.237,0.257,0.257,0.2571,0,0.1851,0.1862,0.1908,0.1919,0.194,0.1985,0.2016,0.2109,0.2156,0.23,0.2328,0.2431,0.2507,0.259,0.261,0.263,0.2545,0.2638,0.2597,0.2613,0.2579,0.2391,0.2332,0.2639,0.264,0.2641,0.2642,0,0.1829,0.1842,0.1859,0.1885,0.1907,0.1946,0.1999,0.2045,0.2155,0.2236,0.2346,0.2424,0.2551,0.2627,0.268,0.268,0.2571,0.2656,0.2675,0.2661,0.2459,0.2383,0.2566,0.265,0.2649,0.2649,0.2648,0.2648,0.1804,0.1806,0.1824,0.1842,0.1865,0.1892,0.191,0.1986,0.207,0.2184,0.2302,0.2423,0.2632,0.2735,0.2708,0.2759,0.2612,0.2744,0.2721,0.253,0.2459,0.2665,0.273,0.273,0.273,0.2729,0.2729,0,0.1765,0.1769,0.1782,0.1794,0.1791,0.183,0.1882,0.1898,0.1965,0.2128,0.2233,0.2502,0.2649,0.277,0.2918,0.2876,0.2675,0.2824,0.2609,0.2551,0.2783,0.2785,0.2863,0.2863,0.2863,0.2863,0.2863,0.2863,0.1743,0.1731,0.1737,0.1713,0.1721,0.1706,0.1723,0.1765,0.1867,0.2043,0.2212,0.2362,0.2695,0.2979,0.3052,0.2978,0.2777,0.2661,0.2572,0.284,0.2831,0.2822,0.2822,0.2907,0.2907,0.2274,0.227,0.2267]},{"header":{"parameterUnit":"m.s-1","parameterCategory":2,"la1":30.2991,"la2":30.254,"lo1":-89.0895,"lo2":-89.0444,"dy":0.0017,"dx":0.0017,"nx":28,"ny":28,"refTime":"2024-02-12T03:00:00:Z","depth":"0","parameterNumber":3,"parameterNumberName":"V-component_of_CURRENTS"},"data":[0,0,0,0,0,0,0,0,0,0,0,0,0,0,0,0,0,0,0,0,0,0,0,0,0,0,0,0,0,0,0,0,0,0,0,0,0,0,0,0,0,0,0,0,0,0,0,0,0,0,0,0,0,0,0,0,0,0,-0.0016,-0.0017,0,-0.0036,-0.0036,-0.0037,-0.006,-0.006,-0.0061,-0.0061,-0.0093,-0.0094,-0.0095,0,0,0,0,0,0,0,0,0,0,0,0,0,-0.0019,-0.0019,-0.0016,-0.0017,-0.0017,-0.0036,-0.0036,-0.0037,-0.006,-0.006,-0.0061,-0.0061,-0.0093,-0.0094,-0.0095,0,0,0,0,0,0,0,0,0,0,0,0,0,-0.0027,-0.0019,-0.0016,-0.003,-0.0032,-0.0036,-0.0036,-0.0037,-0.006,-0.006,-0.0061,-0.0061,-0.0093,-0.0094,-0.0095,-0.0091,0,0,-0.0097,-0.0098,0,0,0,0,0,0,0,0,-0.0026,-0.0027,-0.0028,-0.0029,-0.0031,-0.0046,-0.0049,-0.0056,-0.006,-0.005,-0.0061,-0.0061,-0.0078,-0.008,-0.0083,-0.0093,-0.0094,-0.0098,-0.0098,-0.0098,-0.0099,0,0,0,0,0,0,0,-0.0026,-0.0026,-0.0025,-0.0028,-0.003,-0.0042,-0.0044,-0.0051,-0.0062,-0.0051,-0.0052,-0.0053,-0.0079,-0.0083,-0.0084,-0.0095,-0.0098,-0.0098,-0.0099,-0.0099,-0.0109,-0.0109,0,0,0,0,0,0,-0.002,-0.0025,-0.0024,-0.0025,-0.0029,-0.0042,-0.0043,-0.0041,-0.0062,-0.0065,-0.0053,-0.0054,-0.0081,-0.0083,-0.0086,-0.0078,-0.0098,-0.0099,-0.01,-0.0109,-0.0109,-0.0109,0,0,0,0,0,0,-0.002,-0.002,-0.0024,-0.0026,-0.0027,-0.0041,-0.0038,-0.0041,-0.0045,-0.0063,-0.0067,-0.0054,-0.0081,-0.0084,-0.009,-0.0079,-0.01,-0.01,-0.011,-0.0109,-0.0109,-0.0065,0,0,0,0,0,0,-0.002,-0.0019,-0.0015,-0.0025,-0.0027,-0.0019,-0.0038,-0.0041,-0.0045,-0.0047,-0.0065,-0.0069,-0.0082,-0.0089,-0.0091,-0.0081,-0.0101,-0.011,-0.011,-0.0109,-0.0067,-0.0063,-0.006,0,0,0,0,0,-0.002,-0.0008,-0.0014,-0.0014,-0.002,-0.0018,-0.002,-0.0032,-0.0044,-0.0039,-0.0056,-0.0068,-0.0087,-0.0089,-0.0092,-0.0082,-0.011,-0.011,-0.0109,-0.0068,-0.0064,-0.006,0,0,0,0,0,0,-0.0004,-0.001,-0.0017,-0.0007,-0.001,-0.0022,-0.0017,-0.0029,-0.0038,-0.0042,-0.0063,-0.0067,-0.007,-0.0082,-0.0084,-0.0084,-0.0101,-0.0101,-0.0069,-0.0065,-0.0062,-0.0048,-0.0102,0,0,0,0,0,0.0002,0.0008,-0.0,0.0009,0.0009,-0.0005,-0.0006,-0.0015,-0.0025,-0.003,-0.0044,-0.0059,-0.0069,-0.0072,-0.0084,-0.008,-0.0099,-0.0077,-0.0074,-0.0071,-0.0062,-0.0088,-0.0086,-0.0107,-0.0107,-0.0107,0,0,0.0011,0.0009,0.0012,0.0013,0.0009,0.0018,-0.0006,-0.0004,0.0002,-0.0031,-0.0027,-0.0048,-0.0067,-0.0066,-0.0068,-0.0074,-0.0075,-0.007,-0.0067,-0.006,-0.0087,-0.0085,-0.0083,-0.0106,-0.0107,-0.0107,0,0,0.0036,0.0032,0.0046,0.0046,0.0043,0.0037,0.0039,0.0028,0.0022,0.002,-0.0003,-0.0016,-0.003,-0.004,-0.0047,-0.0031,-0.0058,-0.0037,-0.0005,-0.003,-0.0028,-0.0027,-0.0047,-0.0048,-0.0033,-0.0032,-0.0032,0,0.0047,0.0065,0.0051,0.0065,0.0072,0.0048,0.0067,0.0059,0.0046,0.0047,0.0028,0.0002,-0.0016,-0.0013,-0.001,-0.0022,-0.0042,-0.0017,-0.0025,-0.0024,-0.0023,-0.0045,-0.0046,-0.003,-0.003,-0.0031,-0.0031,0,0.0083,0.0096,0.0107,0.0117,0.0121,0.0134,0.0123,0.0123,0.0108,0.0097,0.0089,0.0057,0.0044,0.0033,0.0017,0.0016,-0.0001,-0.002,-0.0033,-0.0019,-0.0042,-0.0044,-0.0027,-0.0028,-0.0029,-0.0029,0,0,0.0111,0.013,0.0133,0.0151,0.015,0.0161,0.0171,0.0178,0.0191,0.016,0.0169,0.014,0.0114,0.0104,0.0076,0.0054,0.0038,0.0023,0.0021,0.0008,-0.0016,-0.0027,-0.0031,0.0014,0.0014,0.0014,-0.0033,0,0.0146,0.0188,0.0183,0.0223,0.0247,0.0231,0.0246,0.0244,0.0235,0.0236,0.0193,0.0189,0.0144,0.0138,0.0108,0.0056,0.0033,0.0052,-0.0031,-0.0033,-0.0042,-0.0034,-0.001,-0.0049,-0.0036,-0.0036,-0.0036,0,0.0185,0.0209,0.0257,0.0286,0.0295,0.031,0.0335,0.0347,0.0337,0.0326,0.0304,0.0266,0.0233,0.0188,0.0106,0.0119,0.006,0.0013,0.0009,-0.0016,-0.0049,-0.0063,-0.0055,-0.0167,-0.004,-0.004,-0.004,0,0.0223,0.0261,0.0305,0.0315,0.0341,0.0358,0.0371,0.0375,0.0401,0.0387,0.0394,0.0336,0.0315,0.0228,0.0125,0.0116,0.0029,0.0002,-0.0064,-0.0065,-0.0068,-0.0069,-0.0174,-0.0054,-0.0054,-0.0054,-0.0054,0,0.0266,0.0299,0.0327,0.0352,0.0406,0.0404,0.0458,0.046,0.0475,0.0519,0.0446,0.0458,0.0323,0.0253,0.0149,0.0038,0.0044,-0.0053,-0.0077,-0.0052,-0.0051,-0.0168,-0.0248,-0.0056,-0.0056,-0.0055,-0.0055,0,0.03,0.0319,0.0373,0.0411,0.0429,0.0468,0.0521,0.0559,0.0561,0.0613,0.0612,0.0551,0.0464,0.0322,0.0186,0.0082,-0.0101,-0.0073,-0.0033,-0.0051,-0.0217,-0.0294,-0.0423,-0.0497,-0.015,-0.015,-0.0151,0,0.0321,0.0355,0.0421,0.0459,0.0479,0.0537,0.058,0.0604,0.0654,0.0682,0.0712,0.0639,0.0616,0.0397,0.0194,0.0008,-0.0115,-0.0098,-0.0113,-0.0219,-0.0324,-0.0369,-0.0426,-0.0101,-0.0101,-0.0101,-0.0101,0,0.0362,0.0387,0.0434,0.0517,0.0572,0.0645,0.0711,0.0767,0.0809,0.0853,0.09,0.0883,0.0671,0.0502,0.0229,0.0082,-0.0185,-0.0104,-0.0226,-0.0302,-0.0346,-0.043,-0.0079,-0.0101,-0.0101,-0.0101,-0.0101,-0.0101,0.0393,0.0436,0.0502,0.0582,0.0653,0.0754,0.0832,0.0909,0.1011,0.1115,0.1071,0.1111,0.084,0.0473,0.0214,-0.0179,-0.0198,-0.027,-0.0357,-0.0392,-0.0462,-0.0109,-0.0152,-0.0152,-0.0153,-0.0153,-0.0153,0,0.0435,0.0486,0.0562,0.0666,0.0758,0.0788,0.0922,0.1019,0.116,0.1276,0.1335,0.1307,0.0917,0.0524,-0.0019,-0.034,-0.0476,-0.0517,-0.0578,-0.0628,-0.0314,-0.031,-0.0374,-0.0374,-0.0374,-0.0374,-0.0374,-0.0374,0.0459,0.0541,0.0585,0.0743,0.082,0.0967,0.1059,0.1205,0.1337,0.1552,0.1666,0.1717,0.1525,0.0407,-0.0323,-0.0548,-0.0803,-0.0854,-0.0985,-0.0768,-0.0751,-0.0735,-0.0748,-0.0903,-0.0904,-0.1239,-0.1243,-0.1245]}],[{"header":{"parameterUnit":"m.s-1","parameterCategory":2,"la1":30.2991,"la2":30.254,"lo1":-89.0895,"lo2":-89.0444,"dy":0.0017,"dx":0.0017,"nx":28,"ny":28,"refTime":"2024-02-12T03:00:00:Z","depth":"2","parameterNumber":2,"parameterNumberName":"U-component_of_CURRENTS"},"data":[0,0,0,0,0,0,0,0,0,0,0,0,0,0,0,0,0,0,0,0,0,0,0,0,0,0,0,0,0,0,0,0,0,0,0,0,0,0,0,0,0,0,0,0,0,0,0,0,0,0,0,0,0,0,0,0,0,0,0.1773,0.1774,0,0.18,0.18,0.18,0.1807,0.1807,0.1806,0.1806,0.1813,0.1813,0.1814,0,0,0,0,0,0,0,0,0,0,0,0,0,0.1728,0.1729,0.1773,0.1774,0.1774,0.18,0.18,0.18,0.1807,0.1807,0.1806,0.1806,0.1813,0.1813,0.1814,0,0,0,0,0,0,0,0,0,0,0,0,0,0.1749,0.1729,0.1773,0.1782,0.1783,0.18,0.18,0.18,0.1807,0.1807,0.1806,0.1806,0.1813,0.1813,0.1814,0.1816,0,0,0.1815,0.1815,0,0,0,0,0,0,0,0,0.1748,0.175,0.178,0.1781,0.1783,0.1801,0.1787,0.1805,0.1807,0.1796,0.1806,0.1806,0.1808,0.1809,0.1812,0.1816,0.1817,0.1815,0.1815,0.1815,0.1815,0,0,0,0,0,0,0,0.1746,0.1749,0.1782,0.1781,0.1782,0.1784,0.1787,0.179,0.18,0.1797,0.1798,0.1803,0.1809,0.1812,0.1812,0.1817,0.1815,0.1815,0.1815,0.1815,0.1864,0.1865,0,0,0,0,0,0,0.1747,0.1748,0.1781,0.1783,0.1767,0.1785,0.1788,0.1794,0.1801,0.1803,0.1803,0.1803,0.1811,0.1812,0.1813,0.1847,0.1815,0.1815,0.1815,0.1862,0.1864,0.1865,0,0,0,0,0,0,0.1746,0.1749,0.178,0.1767,0.1772,0.1786,0.1793,0.1795,0.1804,0.1806,0.1807,0.1811,0.1811,0.1812,0.1829,0.1846,0.1815,0.1816,0.1861,0.1863,0.1864,0.1896,0,0,0,0,0,0,0.1744,0.1749,0.1753,0.1767,0.1773,0.1802,0.1793,0.1795,0.1808,0.1808,0.1813,0.1814,0.1811,0.1829,0.183,0.1846,0.1816,0.186,0.1862,0.1864,0.1893,0.1898,0.1903,0,0,0,0,0,0.1742,0.1751,0.1753,0.1757,0.1778,0.1803,0.1806,0.1814,0.1808,0.182,0.1824,0.1814,0.1843,0.183,0.1831,0.1847,0.1859,0.1861,0.1864,0.1891,0.1897,0.1903,0,0,0,0,0,0,0.1734,0.1753,0.1755,0.1769,0.1789,0.1805,0.1817,0.1818,0.183,0.183,0.1826,0.1827,0.1851,0.1846,0.1832,0.1869,0.185,0.1853,0.1871,0.1876,0.1881,0.19,0.1816,0,0,0,0,0,0.1734,0.1745,0.1765,0.1778,0.179,0.1803,0.1813,0.182,0.1832,0.1837,0.1841,0.1847,0.1861,0.1865,0.1876,0.1892,0.1897,0.1904,0.1909,0.1913,0.193,0.1948,0.1956,0.1873,0.1873,0.1873,0,0,0.1734,0.1746,0.1752,0.1777,0.1793,0.1814,0.1809,0.1831,0.185,0.1836,0.1861,0.1865,0.187,0.1894,0.1903,0.1891,0.1939,0.1916,0.1919,0.1935,0.1951,0.1959,0.1966,0.1875,0.1875,0.1874,0,0,0.1742,0.1754,0.1767,0.1786,0.1813,0.1826,0.1834,0.1855,0.1869,0.1887,0.189,0.1909,0.1915,0.1935,0.1941,0.1978,0.1965,0.1974,0.2009,0.2026,0.2033,0.2039,0.2053,0.206,0.1973,0.1973,0.1973,0,0.1741,0.1761,0.1776,0.1797,0.1816,0.1833,0.1856,0.1875,0.1898,0.1915,0.19,0.1935,0.1939,0.198,0.1997,0.1989,0.1993,0.1984,0.2031,0.2038,0.2043,0.2057,0.2064,0.1975,0.1974,0.1974,0.1974,0,0.176,0.1778,0.1793,0.1824,0.1846,0.1872,0.1902,0.1924,0.1932,0.1948,0.1987,0.1995,0.2018,0.2021,0.2019,0.2068,0.2055,0.2036,0.2015,0.2053,0.2065,0.2072,0.1977,0.1977,0.1976,0.1976,0,0,0.1752,0.1796,0.1801,0.1817,0.1864,0.1881,0.1924,0.1968,0.1995,0.2014,0.2049,0.208,0.2086,0.2096,0.2099,0.2117,0.2159,0.2097,0.2097,0.2109,0.2194,0.2204,0.2212,0.214,0.2142,0.2143,0.2185,0,0.1765,0.1799,0.1823,0.1861,0.1884,0.1918,0.1957,0.1996,0.2025,0.2063,0.2089,0.2121,0.2114,0.2124,0.2147,0.216,0.218,0.215,0.2159,0.216,0.2161,0.2222,0.2056,0.2081,0.2192,0.2193,0.2194,0,0.1776,0.1798,0.1833,0.188,0.1894,0.1919,0.198,0.2016,0.2081,0.2107,0.215,0.2165,0.222,0.219,0.2244,0.2222,0.222,0.222,0.2221,0.2228,0.2184,0.2062,0.209,0.2206,0.2205,0.2204,0.2203,0,0.1757,0.1805,0.183,0.1847,0.1903,0.1927,0.196,0.2026,0.207,0.2138,0.2171,0.2225,0.2256,0.227,0.2289,0.2263,0.2333,0.229,0.2298,0.2298,0.2161,0.2147,0.2324,0.2324,0.2324,0.2324,0.2324,0,0.1759,0.1779,0.182,0.1833,0.1869,0.1912,0.1965,0.2008,0.2086,0.2141,0.2191,0.2244,0.2277,0.2318,0.2314,0.2349,0.2355,0.2332,0.2321,0.2168,0.2155,0.2263,0.2256,0.2325,0.2325,0.2325,0.2324,0,0.1736,0.1764,0.1792,0.1842,0.1859,0.1882,0.1963,0.1997,0.2081,0.2152,0.2177,0.2274,0.2338,0.2368,0.2402,0.239,0.2407,0.2409,0.2237,0.2207,0.235,0.2343,0.2424,0.2425,0.2425,0.2426,0.2427,0,0.1728,0.1738,0.1784,0.1795,0.1817,0.1863,0.1893,0.1983,0.2029,0.2168,0.2195,0.2297,0.2364,0.2443,0.2431,0.2443,0.2453,0.2293,0.2227,0.2385,0.2366,0.2358,0.2351,0.2044,0.2042,0.204,0.2038,0,0.1707,0.1721,0.1737,0.1764,0.1787,0.1824,0.1877,0.192,0.2026,0.2102,0.2206,0.2277,0.2371,0.2338,0.2376,0.2346,0.2281,0.2254,0.2457,0.2063,0.2035,0.2014,0.2017,0.2019,0.2021,0.2022,0.2023,0.2024,0.1684,0.1686,0.1704,0.1724,0.1747,0.1771,0.1787,0.185,0.1925,0.2001,0.2124,0.2161,0.2217,0.22,0.2147,0.2095,0.2243,0.2132,0.2134,0.214,0.2107,0.2084,0.207,0.2072,0.2074,0.2075,0.2077,0,0.1641,0.1651,0.1664,0.1676,0.1666,0.1713,0.1759,0.1743,0.1788,0.1878,0.1948,0.1835,0.1867,0.1901,0.1815,0.1842,0.1762,0.1755,0.1635,0.1659,0.1679,0.1616,0.1452,0.145,0.1447,0.1445,0,0,0.1619,0.1604,0.1609,0.1582,0.1596,0.1565,0.1578,0.1563,0.1594,0.1586,0.16,0.1754,0.1865,0.1621,0.1621,0.1523,0.1556,0.1456,0.197,0.1854,0.187,0.1929,0.1866,0,0,0,0,0]},{"header":{"parameterUnit":"m.s-1","parameterCategory":2,"la1":30.2991,"la2":30.254,"lo1":-89.0895,"lo2":-89.0444,"dy":0.0017,"dx":0.0017,"nx":28,"ny":28,"refTime":"2024-02-12T03:00:00:Z","depth":"2","parameterNumber":3,"parameterNumberName":"V-component_of_CURRENTS"},"data":[0,0,0,0,0,0,0,0,0,0,0,0,0,0,0,0,0,0,0,0,0,0,0,0,0,0,0,0,0,0,0,0,0,0,0,0,0,0,0,0,0,0,0,0,0,0,0,0,0,0,0,0,0,0,0,0,0,0,0.0003,0.0003,0,-0.0016,-0.0016,-0.0017,-0.004,-0.004,-0.0041,-0.0041,-0.0073,-0.0073,-0.0074,0,0,0,0,0,0,0,0,0,0,0,0,0,-0.0,-0.0,0.0003,0.0003,0.0002,-0.0016,-0.0016,-0.0017,-0.004,-0.004,-0.0041,-0.0041,-0.0072,-0.0073,-0.0074,0,0,0,0,0,0,0,0,0,0,0,0,0,-0.0008,-0.0,0.0003,-0.0011,-0.0012,-0.0016,-0.0016,-0.0017,-0.004,-0.004,-0.0041,-0.0041,-0.0072,-0.0073,-0.0074,-0.0069,0,0,-0.0076,-0.0077,0,0,0,0,0,0,0,0,-0.0007,-0.0008,-0.0009,-0.001,-0.0012,-0.0026,-0.0029,-0.0035,-0.004,-0.003,-0.0041,-0.0042,-0.0057,-0.0059,-0.0063,-0.0071,-0.0072,-0.0076,-0.0077,-0.0077,-0.0077,0,0,0,0,0,0,0,-0.0007,-0.0007,-0.0005,-0.0009,-0.0011,-0.0023,-0.0024,-0.003,-0.0042,-0.0031,-0.0033,-0.0034,-0.0058,-0.0062,-0.0063,-0.0073,-0.0076,-0.0077,-0.0078,-0.0078,-0.0086,-0.0086,0,0,0,0,0,0,-0.0001,-0.0006,-0.0005,-0.0006,-0.001,-0.0022,-0.0024,-0.0021,-0.0041,-0.0044,-0.0033,-0.0035,-0.006,-0.0063,-0.0065,-0.0057,-0.0077,-0.0078,-0.0078,-0.0087,-0.0086,-0.0086,0,0,0,0,0,0,-0.0001,-0.0001,-0.0004,-0.0006,-0.0008,-0.0021,-0.0018,-0.0021,-0.0026,-0.0043,-0.0046,-0.0035,-0.0061,-0.0064,-0.0069,-0.0058,-0.0078,-0.0079,-0.0087,-0.0086,-0.0086,-0.0043,0,0,0,0,0,0,-0.0001,-0.0001,0.0004,-0.0006,-0.0007,0.0001,-0.0018,-0.0021,-0.0025,-0.0027,-0.0045,-0.0049,-0.0061,-0.0067,-0.007,-0.006,-0.008,-0.0087,-0.0087,-0.0086,-0.0045,-0.0041,-0.0038,0,0,0,0,0,-0.0001,0.0011,0.0004,0.0004,-0.0001,0.0002,0.0,-0.0012,-0.0025,-0.002,-0.0036,-0.0048,-0.0066,-0.0068,-0.007,-0.0061,-0.0087,-0.0087,-0.0086,-0.0046,-0.0042,-0.0038,0,0,0,0,0,0,0.0014,0.0009,0.0002,0.0012,0.0009,-0.0002,0.0003,-0.001,-0.0019,-0.0022,-0.0043,-0.0047,-0.0049,-0.0061,-0.0063,-0.0063,-0.0079,-0.0079,-0.0048,-0.0044,-0.0041,-0.0027,-0.008,0,0,0,0,0,0.002,0.0026,0.0018,0.0028,0.0028,0.0014,0.0013,0.0004,-0.0006,-0.001,-0.0024,-0.0039,-0.0048,-0.0051,-0.0062,-0.0058,-0.0077,-0.0055,-0.0052,-0.0049,-0.004,-0.0066,-0.0064,-0.0084,-0.0084,-0.0084,0,0,0.0029,0.0027,0.0031,0.0031,0.0028,0.0037,0.0013,0.0015,0.0021,-0.0012,-0.0008,-0.0028,-0.0046,-0.0044,-0.0046,-0.0052,-0.0053,-0.0048,-0.0045,-0.0038,-0.0065,-0.0063,-0.0061,-0.0084,-0.0084,-0.0084,0,0,0.0054,0.0049,0.0064,0.0064,0.0061,0.0055,0.0057,0.0046,0.0041,0.0039,0.0016,0.0003,-0.001,-0.0019,-0.0026,-0.001,-0.0037,-0.0016,0.0016,-0.0009,-0.0007,-0.0006,-0.0027,-0.0028,-0.0011,-0.0011,-0.0011,0,0.0064,0.0082,0.0069,0.0083,0.009,0.0066,0.0085,0.0078,0.0065,0.0066,0.0046,0.0022,0.0004,0.0007,0.0011,-0.0001,-0.0021,0.0004,-0.0004,-0.0003,-0.0003,-0.0025,-0.0026,-0.0009,-0.0009,-0.0009,-0.0009,0,0.0101,0.0114,0.0125,0.0135,0.0138,0.0152,0.0142,0.0142,0.0126,0.0115,0.0107,0.0076,0.0064,0.0053,0.0037,0.0036,0.0019,0.0001,-0.0012,0.0002,-0.0022,-0.0025,-0.0006,-0.0006,-0.0007,-0.0008,0,0,0.0128,0.0147,0.0151,0.0168,0.0168,0.0179,0.0189,0.0196,0.0209,0.0178,0.0187,0.0158,0.0133,0.0123,0.0096,0.0074,0.0056,0.0043,0.004,0.0026,0.0001,-0.0011,-0.0015,0.0033,0.0032,0.0032,-0.0016,0,0.0163,0.0205,0.02,0.0241,0.0264,0.0249,0.0264,0.0262,0.0253,0.0253,0.0211,0.0206,0.0162,0.0156,0.0126,0.0075,0.0051,0.0071,-0.0013,-0.0015,-0.0025,-0.0018,-0.0001,-0.0042,-0.0019,-0.0019,-0.002,0,0.0202,0.0226,0.0273,0.0303,0.0312,0.0327,0.0351,0.0364,0.0353,0.0342,0.0319,0.0282,0.0249,0.0205,0.0122,0.0135,0.0076,0.003,0.0026,0.0,-0.0032,-0.0054,-0.0048,-0.0024,-0.0024,-0.0024,-0.0023,0,0.0239,0.0277,0.0321,0.0331,0.0358,0.0374,0.0387,0.0391,0.0416,0.0402,0.0407,0.0349,0.0328,0.0242,0.0139,0.0131,0.0042,0.0017,-0.0049,-0.0051,-0.0059,-0.0061,-0.004,-0.004,-0.004,-0.0039,-0.0039,0,0.0281,0.0315,0.0343,0.0368,0.0421,0.042,0.0472,0.0474,0.0488,0.053,0.0459,0.0469,0.0335,0.0265,0.0162,0.0051,0.0057,-0.0039,-0.0063,-0.0044,-0.0044,-0.0047,-0.0047,-0.0041,-0.0041,-0.004,-0.004,0,0.0315,0.0334,0.0388,0.0426,0.0443,0.0482,0.0534,0.0572,0.0573,0.0623,0.0621,0.0558,0.047,0.0331,0.0194,0.0092,-0.002,-0.0062,-0.0029,-0.0048,-0.0103,-0.01,-0.0138,-0.0138,-0.0139,-0.014,-0.014,0,0.0336,0.0369,0.0435,0.0473,0.0492,0.0549,0.0592,0.0615,0.0664,0.0688,0.0717,0.0642,0.0614,0.0396,0.0196,0.0012,-0.0015,-0.0097,-0.0111,-0.0092,-0.0112,-0.0108,-0.0105,-0.0107,-0.0107,-0.0107,-0.0108,0,0.0377,0.0401,0.0447,0.0529,0.0583,0.0656,0.072,0.0774,0.0814,0.0854,0.0896,0.0874,0.0662,0.0476,0.0205,0.0075,-0.007,-0.0105,-0.0096,-0.0082,-0.0067,-0.0085,-0.0082,-0.0109,-0.0109,-0.0109,-0.0108,-0.0108,0.0407,0.0449,0.0514,0.0592,0.0662,0.0761,0.0838,0.0908,0.1003,0.1085,0.1041,0.1021,0.0779,0.0448,0.0193,-0.0078,-0.0059,-0.0147,-0.0146,-0.0144,-0.0129,-0.0116,-0.0164,-0.0164,-0.0164,-0.0164,-0.0164,0,0.0448,0.0498,0.0573,0.0675,0.0764,0.0794,0.0925,0.1008,0.1135,0.1196,0.1233,0.1022,0.0785,0.0502,0.0107,-0.0127,-0.0152,-0.0207,-0.0183,-0.0179,-0.0176,-0.0163,-0.0207,-0.0208,-0.0209,-0.0209,0,0,0.0471,0.0552,0.0595,0.0749,0.0824,0.0965,0.1054,0.1171,0.1252,0.1332,0.1324,0.1257,0.0901,0.061,0.0273,0.0039,-0.0013,-0.0012,0.005,0.0123,0.0129,-0.0114,-0.0086,0,0,0,0,0]}],[{"header":{"parameterUnit":"m.s-1","parameterCategory":2,"la1":30.2991,"la2":30.254,"lo1":-89.0895,"lo2":-89.0444,"dy":0.0017,"dx":0.0017,"nx":28,"ny":28,"refTime":"2024-02-12T03:00:00:Z","depth":"4","parameterNumber":2,"parameterNumberName":"U-component_of_CURRENTS"},"data":[0,0,0,0,0,0,0,0,0,0,0,0,0,0,0,0,0,0,0,0,0,0,0,0,0,0,0,0,0,0,0,0,0,0,0,0,0,0,0,0,0,0,0,0,0,0,0,0,0,0,0,0,0,0,0,0,0,0,0.0973,0.0974,0,0.1028,0.1029,0.1029,0.1075,0.1076,0.1077,0.1077,0.1139,0.114,0.1141,0,0,0,0,0,0,0,0,0,0,0,0,0,0.0902,0.0903,0.0973,0.0974,0.0975,0.1028,0.1029,0.1029,0.1075,0.1076,0.1077,0.1078,0.1139,0.114,0.1141,0,0,0,0,0,0,0,0,0,0,0,0,0,0.0941,0.0903,0.0973,0.1005,0.1009,0.1028,0.1029,0.1029,0.1075,0.1076,0.1077,0.1078,0.1138,0.114,0.1142,0.1133,0,0,0.1147,0.1147,0,0,0,0,0,0,0,0,0.0939,0.0944,0.1,0.1003,0.1007,0.1047,0.1026,0.1065,0.1075,0.1049,0.1077,0.1078,0.1109,0.1113,0.112,0.1136,0.1139,0.1147,0.1148,0.1148,0.1149,0,0,0,0,0,0,0,0.0936,0.0941,0.0994,0.1,0.1005,0.1014,0.1021,0.1034,0.1072,0.1051,0.1055,0.1062,0.1111,0.1118,0.1122,0.114,0.1147,0.1148,0.1149,0.115,0.1238,0.1239,0,0,0,0,0,0,0.0931,0.0939,0.0992,0.0996,0.0976,0.1015,0.1022,0.1032,0.1072,0.108,0.1062,0.1064,0.1115,0.112,0.1124,0.119,0.1148,0.115,0.1151,0.1236,0.1238,0.1239,0,0,0,0,0,0,0.0929,0.0935,0.099,0.0969,0.0977,0.1015,0.1026,0.1033,0.1066,0.108,0.1088,0.1091,0.1116,0.1122,0.1161,0.119,0.1151,0.1152,0.1235,0.1237,0.1239,0.1275,0,0,0,0,0,0,0.0927,0.0934,0.0949,0.0969,0.0978,0.102,0.1026,0.1033,0.1068,0.1073,0.1107,0.1113,0.1117,0.1159,0.1163,0.1191,0.1153,0.1233,0.1236,0.1238,0.1272,0.1278,0.1283,0,0,0,0,0,0.0924,0.0938,0.095,0.0957,0.0994,0.1021,0.1027,0.1056,0.1069,0.1089,0.1114,0.1113,0.1178,0.1161,0.1166,0.1195,0.1232,0.1235,0.1238,0.1269,0.1277,0.1283,0,0,0,0,0,0,0.0916,0.0945,0.0958,0.0981,0.1008,0.103,0.1053,0.1069,0.1103,0.1117,0.1127,0.1134,0.118,0.1183,0.1164,0.1229,0.1206,0.121,0.1229,0.1236,0.1241,0.1256,0.1155,0,0,0,0,0,0.0919,0.094,0.0967,0.0989,0.1005,0.1033,0.1052,0.1072,0.11,0.1117,0.114,0.1167,0.1191,0.121,0.123,0.1262,0.1268,0.1286,0.1292,0.1296,0.1313,0.1338,0.1347,0.1249,0.1249,0.1249,0,0,0.0922,0.0942,0.0954,0.0989,0.1014,0.1041,0.1048,0.1086,0.1115,0.1117,0.1171,0.1188,0.1205,0.1245,0.1266,0.1254,0.1327,0.13,0.1304,0.1318,0.1342,0.1352,0.136,0.1251,0.1251,0.1251,0,0,0.0932,0.0959,0.0978,0.1003,0.1045,0.1063,0.108,0.1117,0.1147,0.1188,0.1203,0.1241,0.1273,0.1297,0.1309,0.1358,0.1354,0.1365,0.1407,0.1431,0.1439,0.1446,0.1462,0.147,0.1368,0.1368,0.1368,0,0.0936,0.0964,0.0989,0.1015,0.1041,0.1076,0.1105,0.1137,0.1184,0.1212,0.1213,0.1283,0.1298,0.1351,0.1374,0.1371,0.1381,0.1377,0.1438,0.1445,0.1452,0.1466,0.1474,0.137,0.137,0.137,0.137,0,0.0953,0.0986,0.1003,0.1047,0.1077,0.1112,0.1154,0.1194,0.1229,0.1257,0.1323,0.1346,0.139,0.14,0.1404,0.1467,0.1457,0.1439,0.1418,0.1464,0.1475,0.1484,0.1373,0.1373,0.1372,0.1372,0,0,0.0939,0.1003,0.1012,0.1038,0.1101,0.1123,0.1183,0.1241,0.1284,0.1332,0.1387,0.1438,0.1461,0.1479,0.1492,0.1519,0.1574,0.1509,0.1509,0.152,0.1628,0.1533,0.1533,0.1566,0.1568,0.157,0.1615,0,0.0951,0.0997,0.1031,0.1084,0.1113,0.1166,0.1216,0.1274,0.1325,0.1385,0.143,0.1487,0.1488,0.1519,0.1549,0.1573,0.1599,0.1563,0.1587,0.1588,0.1494,0.1541,0.1575,0.1621,0.1623,0.1624,0.1625,0,0.0955,0.0988,0.1039,0.1106,0.1126,0.1167,0.1252,0.1302,0.1392,0.1436,0.1503,0.1538,0.1612,0.1592,0.1662,0.1641,0.1649,0.1653,0.1654,0.1562,0.1509,0.1568,0.164,0.1639,0.1638,0.1637,0.1636,0,0.0923,0.0993,0.1035,0.1058,0.1138,0.1182,0.1233,0.1323,0.1379,0.148,0.1529,0.1605,0.1658,0.1684,0.1715,0.1696,0.1772,0.1736,0.1656,0.1649,0.1703,0.1695,0.178,0.178,0.178,0.178,0.1779,0,0.0911,0.0946,0.1027,0.1048,0.1107,0.1172,0.125,0.1312,0.1414,0.1477,0.1561,0.1617,0.1687,0.1736,0.1741,0.1732,0.1795,0.1679,0.166,0.1716,0.1709,0.1709,0.17,0.1781,0.1781,0.1781,0.178,0,0.0868,0.0922,0.0971,0.1061,0.1094,0.1138,0.1257,0.1305,0.1415,0.15,0.154,0.1654,0.1716,0.1764,0.1811,0.1758,0.1757,0.1735,0.1807,0.1789,0.161,0.1602,0.1643,0.164,0.1637,0.1635,0.1634,0,0.0849,0.0871,0.0967,0.1,0.1047,0.1127,0.1178,0.1295,0.1349,0.1505,0.1533,0.1645,0.1703,0.1701,0.1753,0.1756,0.1733,0.1713,0.1651,0.1621,0.1599,0.1595,0.1592,0.163,0.1629,0.1629,0.1628,0,0.0807,0.0852,0.0891,0.0959,0.1016,0.1074,0.1159,0.1193,0.1321,0.1431,0.1498,0.1538,0.1607,0.1642,0.1665,0.1659,0.1713,0.1687,0.1691,0.1632,0.1606,0.1586,0.1585,0.162,0.1621,0.1622,0.1622,0,0.0779,0.0794,0.0852,0.0905,0.0967,0.0999,0.1056,0.1123,0.1194,0.136,0.1377,0.1492,0.1593,0.1593,0.1612,0.1607,0.1572,0.15,0.1513,0.1522,0.1461,0.1408,0.1359,0,0,0,0,0,0.0743,0.0752,0.0793,0.0839,0.0896,0.0936,0.103,0.1089,0.1211,0.1222,0.1301,0.1358,0.1405,0.1468,0.1436,0.155,0.157,0.1504,0.1492,0.1573,0.1583,0.1522,0,0,0,0,0,0,0.0716,0.0749,0.0766,0.0772,0.0792,0.0845,0.09,0.0983,0.1004,0.1133,0.1172,0.1267,0.1338,0.1409,0.1409,0.1424,0.1385,0.1577,0.1573,0.1568,0.1577,0.1584,0.1525,0,0,0,0,0]},{"header":{"parameterUnit":"m.s-1","parameterCategory":2,"la1":30.2991,"la2":30.254,"lo1":-89.0895,"lo2":-89.0444,"dy":0.0017,"dx":0.0017,"nx":28,"ny":28,"refTime":"2024-02-12T03:00:00:Z","depth":"4","parameterNumber":3,"parameterNumberName":"V-component_of_CURRENTS"},"data":[0,0,0,0,0,0,0,0,0,0,0,0,0,0,0,0,0,0,0,0,0,0,0,0,0,0,0,0,0,0,0,0,0,0,0,0,0,0,0,0,0,0,0,0,0,0,0,0,0,0,0,0,0,0,0,0,0,0,0.0096,0.0096,0,0.0083,0.0083,0.0083,0.0065,0.0065,0.0065,0.0064,0.0042,0.0042,0.0042,0,0,0,0,0,0,0,0,0,0,0,0,0,0.0094,0.0094,0.0096,0.0096,0.0096,0.0083,0.0083,0.0083,0.0065,0.0065,0.0065,0.0064,0.0042,0.0042,0.0042,0,0,0,0,0,0,0,0,0,0,0,0,0,0.0089,0.0094,0.0096,0.0086,0.0085,0.0083,0.0083,0.0083,0.0065,0.0065,0.0065,0.0064,0.0042,0.0042,0.0041,0.0046,0,0,0.004,0.004,0,0,0,0,0,0,0,0,0.0089,0.0089,0.0087,0.0086,0.0085,0.0076,0.0074,0.007,0.0065,0.0072,0.0064,0.0064,0.0053,0.0052,0.005,0.0045,0.0044,0.004,0.0039,0.0039,0.0039,0,0,0,0,0,0,0,0.0089,0.0089,0.009,0.0087,0.0086,0.0078,0.0077,0.0073,0.0065,0.0072,0.007,0.007,0.0052,0.005,0.0049,0.0044,0.004,0.0039,0.0039,0.0039,0.0035,0.0035,0,0,0,0,0,0,0.0093,0.009,0.0091,0.009,0.0087,0.0078,0.0077,0.0079,0.0065,0.0062,0.007,0.0069,0.0051,0.005,0.0048,0.0056,0.0039,0.0039,0.0038,0.0035,0.0035,0.0035,0,0,0,0,0,0,0.0093,0.0093,0.0091,0.009,0.0089,0.0079,0.0081,0.0079,0.0075,0.0064,0.0061,0.0068,0.0051,0.0049,0.0047,0.0055,0.0039,0.0038,0.0034,0.0035,0.0035,0.0069,0,0,0,0,0,0,0.0093,0.0093,0.0097,0.009,0.0089,0.0096,0.0081,0.0079,0.0075,0.0074,0.0061,0.0059,0.0051,0.0047,0.0046,0.0054,0.0038,0.0034,0.0035,0.0035,0.0068,0.0071,0.0073,0,0,0,0,0,0.0093,0.0103,0.0097,0.0098,0.0094,0.0096,0.0095,0.0086,0.0076,0.008,0.0069,0.0059,0.0049,0.0047,0.0046,0.0053,0.0034,0.0034,0.0035,0.0067,0.007,0.0073,0,0,0,0,0,0,0.0106,0.0102,0.0096,0.0104,0.0102,0.0093,0.0098,0.0088,0.0082,0.0079,0.0064,0.0061,0.0061,0.0052,0.0051,0.0052,0.0039,0.0039,0.0064,0.0067,0.007,0.0079,0.0037,0,0,0,0,0,0.011,0.0116,0.0109,0.0117,0.0117,0.0106,0.0105,0.0098,0.0092,0.0088,0.0078,0.0068,0.0062,0.0061,0.0053,0.0057,0.0038,0.006,0.0063,0.0065,0.0071,0.0044,0.0044,0.0037,0.0037,0.0037,0,0,0.0119,0.0116,0.012,0.012,0.0117,0.0125,0.0105,0.0107,0.0113,0.0087,0.0092,0.0077,0.0064,0.0067,0.0066,0.0061,0.0057,0.0066,0.0068,0.0073,0.0044,0.0045,0.0045,0.0037,0.0037,0.0037,0,0,0.0139,0.0135,0.0147,0.0147,0.0144,0.014,0.0141,0.0133,0.0129,0.0129,0.0111,0.0101,0.0094,0.0087,0.0082,0.0095,0.007,0.0091,0.0116,0.0089,0.009,0.009,0.0067,0.0065,0.0095,0.0095,0.0095,0,0.0147,0.0162,0.0151,0.0162,0.0168,0.0148,0.0164,0.0159,0.015,0.015,0.0135,0.0117,0.0104,0.0107,0.0111,0.0102,0.0082,0.0106,0.0093,0.0093,0.0092,0.0069,0.0066,0.0097,0.0097,0.0096,0.0096,0,0.0177,0.0188,0.0196,0.0204,0.0208,0.0219,0.0212,0.0212,0.02,0.0191,0.0184,0.0161,0.0151,0.0143,0.0133,0.0127,0.0112,0.0097,0.0086,0.0095,0.007,0.0066,0.0099,0.0099,0.0098,0.0098,0,0,0.0197,0.0214,0.0217,0.0232,0.0232,0.0242,0.0251,0.0256,0.0265,0.0242,0.0247,0.0227,0.0205,0.0198,0.0176,0.0155,0.0132,0.0129,0.0126,0.0108,0.0073,0.0063,0.0058,0.0111,0.0111,0.0111,0.0057,0,0.0225,0.0258,0.0257,0.0291,0.031,0.0299,0.0311,0.031,0.0302,0.03,0.0266,0.0262,0.0229,0.0223,0.0195,0.0149,0.0124,0.0148,0.0065,0.0063,0.0055,0.0054,0.0109,0.0054,0.0053,0.0052,0.0052,0,0.0255,0.0274,0.0313,0.034,0.0347,0.0362,0.0382,0.0392,0.038,0.0371,0.035,0.0319,0.0289,0.0255,0.0177,0.0192,0.0139,0.0097,0.0093,0.0071,0.0047,0.0042,0.0045,0.0046,0.0046,0.0047,0.0047,0,0.028,0.0315,0.0351,0.036,0.0384,0.04,0.0412,0.0413,0.0433,0.0418,0.0419,0.0368,0.0347,0.027,0.0181,0.0178,0.0088,0.0071,0.0012,0.001,0.002,0.002,0.0014,0.0014,0.0015,0.0015,0.0015,0,0.031,0.0339,0.0368,0.0388,0.0434,0.0435,0.0479,0.048,0.0489,0.0513,0.046,0.0457,0.0348,0.0282,0.0195,0.0093,0.0095,0.0017,-0.0004,0.0035,0.0038,0.0017,0.0018,0.0013,0.0013,0.0014,0.0014,0,0.0332,0.035,0.0397,0.0432,0.0449,0.0482,0.053,0.0557,0.0558,0.0585,0.0582,0.0524,0.0436,0.0322,0.0197,0.0119,0.0019,-0.0018,0.0038,0.002,-0.0045,-0.0042,-0.0088,-0.0089,-0.009,-0.009,-0.0091,0,0.0345,0.0373,0.0432,0.0464,0.0483,0.0534,0.0568,0.0591,0.0623,0.0627,0.064,0.0566,0.051,0.0334,0.0204,0.0033,0.0006,-0.0049,-0.0053,-0.0039,-0.0056,-0.0051,-0.0047,-0.0092,-0.0092,-0.0092,-0.0092,0,0.0371,0.0394,0.0431,0.0498,0.0545,0.0606,0.0656,0.0685,0.0709,0.0708,0.0691,0.0595,0.0492,0.0343,0.0207,0.0084,-0.0017,-0.0057,-0.0057,-0.006,-0.0044,-0.0059,-0.0054,-0.0095,-0.0094,-0.0094,-0.0094,0,0.0389,0.042,0.0471,0.0529,0.0595,0.0659,0.0684,0.0718,0.0751,0.0748,0.074,0.0625,0.0558,0.037,0.0246,0.012,0.0084,0.0039,0.0033,0.0034,0.0079,0.0118,0.0102,0,0,0,0,0,0.0403,0.0439,0.0496,0.0565,0.0631,0.0674,0.0736,0.0754,0.0776,0.0772,0.0761,0.0665,0.0479,0.04,0.0273,0.0221,0.0053,0.0066,-0.0003,-0.0107,-0.0105,-0.0074,0,0,0,0,0,0,0.0413,0.0466,0.0497,0.0587,0.0639,0.0718,0.0763,0.0775,0.0776,0.0772,0.0681,0.0628,0.0452,0.0555,0.0271,0.0231,0.0167,-0.0021,-0.0024,-0.0109,-0.0106,-0.0104,-0.0072,0,0,0,0,0]}]]